Year,Month,Day,Hour,Minute,Value (Times are PST for temperature in C)
2014,02,20,00,00,3.30
2014,02,20,00,01,3.30
2014,02,20,00,02,3.30
2014,02,20,00,03,3.30
2014,02,20,00,04,3.30
2014,02,20,00,05,3.30
2014,02,20,00,06,3.30
2014,02,20,00,07,3.30
2014,02,20,00,08,3.30
2014,02,20,00,09,3.30
2014,02,20,00,10,3.30
2014,02,20,00,11,3.30
2014,02,20,00,12,3.30
2014,02,20,00,13,3.30
2014,02,20,00,14,3.30
2014,02,20,00,15,3.30
2014,02,20,00,16,3.30
2014,02,20,00,17,3.30
2014,02,20,00,18,3.30
2014,02,20,00,19,3.30
2014,02,20,00,20,3.30
2014,02,20,00,21,3.30
2014,02,20,00,22,3.30
2014,02,20,00,23,3.30
2014,02,20,00,24,3.30
2014,02,20,00,25,3.30
2014,02,20,00,26,3.30
2014,02,20,00,27,3.30
2014,02,20,00,28,3.30
2014,02,20,00,29,3.30
2014,02,20,00,30,3.30
2014,02,20,00,31,3.30
2014,02,20,00,32,3.30
2014,02,20,00,33,3.30
2014,02,20,00,34,3.30
2014,02,20,00,35,3.30
2014,02,20,00,36,3.30
2014,02,20,00,37,3.30
2014,02,20,00,38,3.30
2014,02,20,00,39,3.30
2014,02,20,00,40,3.30
2014,02,20,00,41,3.30
2014,02,20,00,42,3.30
2014,02,20,00,43,3.30
2014,02,20,00,44,3.30
2014,02,20,00,45,3.30
2014,02,20,00,46,3.20
2014,02,20,00,47,3.20
2014,02,20,00,48,3.20
2014,02,20,00,49,3.20
2014,02,20,00,50,3.20
2014,02,20,00,51,3.20
2014,02,20,00,52,3.20
2014,02,20,00,53,3.20
2014,02,20,00,54,3.20
2014,02,20,00,55,3.20
2014,02,20,00,56,3.20
2014,02,20,00,57,3.20
2014,02,20,00,58,3.20
2014,02,20,00,59,3.20
2014,02,20,01,00,3.20
2014,02,20,01,01,3.10
2014,02,20,01,02,3.10
2014,02,20,01,03,3.10
2014,02,20,01,04,3.10
2014,02,20,01,05,3.10
2014,02,20,01,06,3.10
2014,02,20,01,07,3.10
2014,02,20,01,08,3.10
2014,02,20,01,09,3.10
2014,02,20,01,10,3.10
2014,02,20,01,11,3.10
2014,02,20,01,12,3.10
2014,02,20,01,13,3.00
2014,02,20,01,14,3.00
2014,02,20,01,15,3.00
2014,02,20,01,16,3.00
2014,02,20,01,17,3.00
2014,02,20,01,18,2.90
2014,02,20,01,19,2.90
2014,02,20,01,20,2.90
2014,02,20,01,21,2.90
2014,02,20,01,22,2.90
2014,02,20,01,23,2.90
2014,02,20,01,24,2.90
2014,02,20,01,25,2.80
2014,02,20,01,26,2.80
2014,02,20,01,27,2.80
2014,02,20,01,28,2.80
2014,02,20,01,29,2.80
2014,02,20,01,30,2.80
2014,02,20,01,31,2.80
2014,02,20,01,32,2.80
2014,02,20,01,33,2.70
2014,02,20,01,34,2.70
2014,02,20,01,35,2.70
2014,02,20,01,36,2.60
2014,02,20,01,37,2.60
2014,02,20,01,38,2.60
2014,02,20,01,39,2.60
2014,02,20,01,40,2.50
2014,02,20,01,41,2.50
2014,02,20,01,42,2.50
2014,02,20,01,43,2.50
2014,02,20,01,44,2.50
2014,02,20,01,45,2.50
2014,02,20,01,46,2.50
2014,02,20,01,47,2.50
2014,02,20,01,48,2.50
2014,02,20,01,49,2.50
2014,02,20,01,50,2.40
2014,02,20,01,51,2.40
2014,02,20,01,52,2.40
2014,02,20,01,53,2.40
2014,02,20,01,54,2.40
2014,02,20,01,55,2.40
2014,02,20,01,56,2.40
2014,02,20,01,57,2.40
2014,02,20,01,58,2.40
2014,02,20,01,59,2.40
2014,02,20,02,00,2.50
2014,02,20,02,01,2.50
2014,02,20,02,02,2.50
2014,02,20,02,03,2.50
2014,02,20,02,04,2.60
2014,02,20,02,05,2.60
2014,02,20,02,06,2.60
2014,02,20,02,07,2.60
2014,02,20,02,08,2.60
2014,02,20,02,09,2.60
2014,02,20,02,10,2.60
2014,02,20,02,11,2.60
2014,02,20,02,12,2.60
2014,02,20,02,13,2.50
2014,02,20,02,14,2.50
2014,02,20,02,15,2.50
2014,02,20,02,16,2.50
2014,02,20,02,17,2.40
2014,02,20,02,18,2.50
2014,02,20,02,19,2.50
2014,02,20,02,20,2.50
2014,02,20,02,21,2.50
2014,02,20,02,22,2.50
2014,02,20,02,23,2.50
2014,02,20,02,24,2.50
2014,02,20,02,25,2.40
2014,02,20,02,26,2.40
2014,02,20,02,27,2.40
2014,02,20,02,28,2.40
2014,02,20,02,29,2.30
2014,02,20,02,30,2.30
2014,02,20,02,31,2.30
2014,02,20,02,32,2.30
2014,02,20,02,33,2.30
2014,02,20,02,34,2.20
2014,02,20,02,35,2.20
2014,02,20,02,36,2.20
2014,02,20,02,37,2.20
2014,02,20,02,38,2.20
2014,02,20,02,39,2.20
2014,02,20,02,40,2.10
2014,02,20,02,41,2.10
2014,02,20,02,42,2.10
2014,02,20,02,43,2.10
2014,02,20,02,44,2.10
2014,02,20,02,45,2.10
2014,02,20,02,46,2.10
2014,02,20,02,47,2.10
2014,02,20,02,48,2.00
2014,02,20,02,49,2.00
2014,02,20,02,50,2.00
2014,02,20,02,51,1.90
2014,02,20,02,52,1.90
2014,02,20,02,53,1.90
2014,02,20,02,54,1.90
2014,02,20,02,55,1.90
2014,02,20,02,56,1.80
2014,02,20,02,57,1.80
2014,02,20,02,58,1.80
2014,02,20,02,59,1.80
2014,02,20,03,00,1.80
2014,02,20,03,01,1.80
2014,02,20,03,02,1.70
2014,02,20,03,03,1.70
2014,02,20,03,04,1.80
2014,02,20,03,05,1.70
2014,02,20,03,06,1.70
2014,02,20,03,07,1.70
2014,02,20,03,08,1.70
2014,02,20,03,09,1.70
2014,02,20,03,10,1.70
2014,02,20,03,11,1.70
2014,02,20,03,12,1.70
2014,02,20,03,13,1.70
2014,02,20,03,14,1.70
2014,02,20,03,15,1.70
2014,02,20,03,16,1.70
2014,02,20,03,17,1.70
2014,02,20,03,18,1.70
2014,02,20,03,19,1.70
2014,02,20,03,20,1.70
2014,02,20,03,21,1.70
2014,02,20,03,22,1.70
2014,02,20,03,23,1.70
2014,02,20,03,24,1.70
2014,02,20,03,25,1.70
2014,02,20,03,26,1.70
2014,02,20,03,27,1.70
2014,02,20,03,28,1.70
2014,02,20,03,29,1.70
2014,02,20,03,30,1.70
2014,02,20,03,31,1.70
2014,02,20,03,32,1.70
2014,02,20,03,33,1.70
2014,02,20,03,34,1.70
2014,02,20,03,35,1.70
2014,02,20,03,36,1.70
2014,02,20,03,37,1.70
2014,02,20,03,38,1.70
2014,02,20,03,39,1.70
2014,02,20,03,40,1.70
2014,02,20,03,41,1.70
2014,02,20,03,42,1.70
2014,02,20,03,43,1.70
2014,02,20,03,44,1.70
2014,02,20,03,45,1.70
2014,02,20,03,46,1.70
2014,02,20,03,47,1.70
2014,02,20,03,48,1.70
2014,02,20,03,49,1.70
2014,02,20,03,50,1.70
2014,02,20,03,51,1.70
2014,02,20,03,52,1.80
2014,02,20,03,53,1.80
2014,02,20,03,54,1.80
2014,02,20,03,55,1.80
2014,02,20,03,56,1.80
2014,02,20,03,57,1.80
2014,02,20,03,58,1.80
2014,02,20,03,59,1.80
2014,02,20,04,00,1.80
2014,02,20,04,01,1.80
2014,02,20,04,02,1.80
2014,02,20,04,03,1.80
2014,02,20,04,04,1.80
2014,02,20,04,05,1.80
2014,02,20,04,06,1.90
2014,02,20,04,07,1.90
2014,02,20,04,08,1.90
2014,02,20,04,09,1.90
2014,02,20,04,10,1.90
2014,02,20,04,11,1.90
2014,02,20,04,12,1.90
2014,02,20,04,13,1.90
2014,02,20,04,14,1.80
2014,02,20,04,15,1.80
2014,02,20,04,16,1.80
2014,02,20,04,17,1.80
2014,02,20,04,18,1.90
2014,02,20,04,19,2.00
2014,02,20,04,20,2.00
2014,02,20,04,21,2.00
2014,02,20,04,22,2.00
2014,02,20,04,23,2.00
2014,02,20,04,24,2.00
2014,02,20,04,25,1.90
2014,02,20,04,26,1.90
2014,02,20,04,27,2.00
2014,02,20,04,28,2.00
2014,02,20,04,29,2.00
2014,02,20,04,30,2.00
2014,02,20,04,31,2.00
2014,02,20,04,32,2.10
2014,02,20,04,33,2.10
2014,02,20,04,34,2.10
2014,02,20,04,35,2.10
2014,02,20,04,36,2.10
2014,02,20,04,37,2.20
2014,02,20,04,38,2.20
2014,02,20,04,39,2.20
2014,02,20,04,40,2.20
2014,02,20,04,41,2.10
2014,02,20,04,42,2.10
2014,02,20,04,43,2.10
2014,02,20,04,44,2.10
2014,02,20,04,45,2.10
2014,02,20,04,46,2.10
2014,02,20,04,47,2.10
2014,02,20,04,48,2.10
2014,02,20,04,49,2.10
2014,02,20,04,50,2.10
2014,02,20,04,51,2.10
2014,02,20,04,52,2.10
2014,02,20,04,53,2.10
2014,02,20,04,54,2.10
2014,02,20,04,55,2.10
2014,02,20,04,56,2.10
2014,02,20,04,57,2.10
2014,02,20,04,58,2.10
2014,02,20,04,59,2.20
2014,02,20,05,00,2.20
2014,02,20,05,01,2.20
2014,02,20,05,02,2.20
2014,02,20,05,03,2.20
2014,02,20,05,04,2.20
2014,02,20,05,05,2.20
2014,02,20,05,06,2.30
2014,02,20,05,07,2.30
2014,02,20,05,08,2.30
2014,02,20,05,09,2.40
2014,02,20,05,10,2.40
2014,02,20,05,11,2.40
2014,02,20,05,12,2.50
2014,02,20,05,13,2.50
2014,02,20,05,14,2.70
2014,02,20,05,15,2.80
2014,02,20,05,16,2.80
2014,02,20,05,17,2.80
2014,02,20,05,18,2.80
2014,02,20,05,19,2.80
2014,02,20,05,20,2.90
2014,02,20,05,21,2.90
2014,02,20,05,22,2.90
2014,02,20,05,23,2.80
2014,02,20,05,24,2.80
2014,02,20,05,25,2.80
2014,02,20,05,26,2.90
2014,02,20,05,27,3.00
2014,02,20,05,28,3.00
2014,02,20,05,29,3.10
2014,02,20,05,30,3.10
2014,02,20,05,31,3.10
2014,02,20,05,32,3.10
2014,02,20,05,33,3.10
2014,02,20,05,34,3.10
2014,02,20,05,35,3.00
2014,02,20,05,36,3.00
2014,02,20,05,37,2.90
2014,02,20,05,38,2.90
2014,02,20,05,39,2.80
2014,02,20,05,40,2.80
2014,02,20,05,41,2.80
2014,02,20,05,42,2.90
2014,02,20,05,43,2.90
2014,02,20,05,44,2.90
2014,02,20,05,45,2.90
2014,02,20,05,46,2.90
2014,02,20,05,47,2.90
2014,02,20,05,48,2.80
2014,02,20,05,49,2.70
2014,02,20,05,50,2.60
2014,02,20,05,51,2.60
2014,02,20,05,52,2.50
2014,02,20,05,53,2.40
2014,02,20,05,54,2.40
2014,02,20,05,55,2.40
2014,02,20,05,56,2.30
2014,02,20,05,57,2.30
2014,02,20,05,58,2.40
2014,02,20,05,59,2.50
2014,02,20,06,00,2.80
2014,02,20,06,01,3.00
2014,02,20,06,02,3.10
2014,02,20,06,03,3.20
2014,02,20,06,04,3.40
2014,02,20,06,05,3.60
2014,02,20,06,06,3.80
2014,02,20,06,07,4.00
2014,02,20,06,08,4.30
2014,02,20,06,09,4.40
2014,02,20,06,10,4.50
2014,02,20,06,11,4.70
2014,02,20,06,12,4.70
2014,02,20,06,13,4.80
2014,02,20,06,14,4.80
2014,02,20,06,15,4.80
2014,02,20,06,16,4.80
2014,02,20,06,17,4.90
2014,02,20,06,18,5.00
2014,02,20,06,19,5.10
2014,02,20,06,20,5.30
2014,02,20,06,21,5.50
2014,02,20,06,22,5.70
2014,02,20,06,23,5.90
2014,02,20,06,24,6.20
2014,02,20,06,25,6.30
2014,02,20,06,26,6.40
2014,02,20,06,27,6.40
2014,02,20,06,28,6.40
2014,02,20,06,29,6.40
2014,02,20,06,30,6.40
2014,02,20,06,31,6.30
2014,02,20,06,32,6.10
2014,02,20,06,33,5.90
2014,02,20,06,34,5.80
2014,02,20,06,35,5.80
2014,02,20,06,36,5.80
2014,02,20,06,37,5.80
2014,02,20,06,38,5.80
2014,02,20,06,39,5.80
2014,02,20,06,40,5.80
2014,02,20,06,41,5.70
2014,02,20,06,42,5.70
2014,02,20,06,43,5.60
2014,02,20,06,44,5.60
2014,02,20,06,45,5.50
2014,02,20,06,46,5.50
2014,02,20,06,47,5.40
2014,02,20,06,48,5.40
2014,02,20,06,49,5.40
2014,02,20,06,50,5.30
2014,02,20,06,51,5.30
2014,02,20,06,52,5.20
2014,02,20,06,53,5.20
2014,02,20,06,54,5.10
2014,02,20,06,55,5.10
2014,02,20,06,56,5.00
2014,02,20,06,57,5.00
2014,02,20,06,58,4.90
2014,02,20,06,59,4.90
2014,02,20,07,00,4.90
2014,02,20,07,01,4.80
2014,02,20,07,02,4.80
2014,02,20,07,03,4.80
2014,02,20,07,04,4.80
2014,02,20,07,05,4.70
2014,02,20,07,06,4.70
2014,02,20,07,07,4.70
2014,02,20,07,08,4.70
2014,02,20,07,09,4.70
2014,02,20,07,10,4.80
2014,02,20,07,11,4.80
2014,02,20,07,12,4.80
2014,02,20,07,13,4.90
2014,02,20,07,14,5.00
2014,02,20,07,15,5.10
2014,02,20,07,16,5.10
2014,02,20,07,17,5.20
2014,02,20,07,18,5.30
2014,02,20,07,19,5.30
2014,02,20,07,20,5.40
2014,02,20,07,21,5.40
2014,02,20,07,22,5.50
2014,02,20,07,23,5.50
2014,02,20,07,24,5.50
2014,02,20,07,25,5.60
2014,02,20,07,26,5.60
2014,02,20,07,27,5.60
2014,02,20,07,28,5.60
2014,02,20,07,29,5.60
2014,02,20,07,30,5.60
2014,02,20,07,31,5.70
2014,02,20,07,32,5.70
2014,02,20,07,33,5.70
2014,02,20,07,34,5.70
2014,02,20,07,35,5.70
2014,02,20,07,36,5.70
2014,02,20,07,37,5.70
2014,02,20,07,38,5.70
2014,02,20,07,39,5.70
2014,02,20,07,40,5.70
2014,02,20,07,41,5.70
2014,02,20,07,42,5.70
2014,02,20,07,43,5.70
2014,02,20,07,44,5.80
2014,02,20,07,45,5.80
2014,02,20,07,46,5.80
2014,02,20,07,47,5.80
2014,02,20,07,48,5.80
2014,02,20,07,49,5.80
2014,02,20,07,50,5.80
2014,02,20,07,51,5.80
2014,02,20,07,52,5.80
2014,02,20,07,53,5.80
2014,02,20,07,54,5.70
2014,02,20,07,55,5.70
2014,02,20,07,56,5.70
2014,02,20,07,57,5.70
2014,02,20,07,58,5.60
2014,02,20,07,59,5.60
2014,02,20,08,00,5.70
2014,02,20,08,01,5.70
2014,02,20,08,02,5.70
2014,02,20,08,03,5.80
2014,02,20,08,04,5.80
2014,02,20,08,05,5.80
2014,02,20,08,06,5.90
2014,02,20,08,07,5.90
2014,02,20,08,08,5.90
2014,02,20,08,09,5.90
2014,02,20,08,10,5.90
2014,02,20,08,11,5.90
2014,02,20,08,12,5.90
2014,02,20,08,13,5.90
2014,02,20,08,14,5.90
2014,02,20,08,15,5.90
2014,02,20,08,16,6.00
2014,02,20,08,17,6.00
2014,02,20,08,18,6.10
2014,02,20,08,19,6.10
2014,02,20,08,20,6.10
2014,02,20,08,21,6.10
2014,02,20,08,22,6.10
2014,02,20,08,23,6.10
2014,02,20,08,24,6.10
2014,02,20,08,25,6.10
2014,02,20,08,26,6.20
2014,02,20,08,27,6.20
2014,02,20,08,28,6.20
2014,02,20,08,29,6.20
2014,02,20,08,30,6.20
2014,02,20,08,31,6.20
2014,02,20,08,32,6.20
2014,02,20,08,33,6.30
2014,02,20,08,34,6.30
2014,02,20,08,35,6.30
2014,02,20,08,36,6.30
2014,02,20,08,37,6.40
2014,02,20,08,38,6.40
2014,02,20,08,39,6.40
2014,02,20,08,40,6.40
2014,02,20,08,41,6.50
2014,02,20,08,42,6.50
2014,02,20,08,43,6.50
2014,02,20,08,44,6.60
2014,02,20,08,45,6.60
2014,02,20,08,46,6.60
2014,02,20,08,47,6.60
2014,02,20,08,48,6.60
2014,02,20,08,49,6.70
2014,02,20,08,50,6.70
2014,02,20,08,51,6.80
2014,02,20,08,52,6.80
2014,02,20,08,53,6.80
2014,02,20,08,54,6.80
2014,02,20,08,55,6.80
2014,02,20,08,56,6.80
2014,02,20,08,57,6.90
2014,02,20,08,58,6.90
2014,02,20,08,59,6.90
2014,02,20,09,00,6.90
2014,02,20,09,01,6.90
2014,02,20,09,02,6.90
2014,02,20,09,03,6.90
2014,02,20,09,04,6.90
2014,02,20,09,05,7.00
2014,02,20,09,06,7.00
2014,02,20,09,07,7.00
2014,02,20,09,08,7.00
2014,02,20,09,09,7.00
2014,02,20,09,10,7.00
2014,02,20,09,11,7.00
2014,02,20,09,12,7.10
2014,02,20,09,13,7.10
2014,02,20,09,14,7.10
2014,02,20,09,15,7.10
2014,02,20,09,16,7.10
2014,02,20,09,17,7.10
2014,02,20,09,18,7.10
2014,02,20,09,19,7.10
2014,02,20,09,20,7.20
2014,02,20,09,21,7.20
2014,02,20,09,22,7.20
2014,02,20,09,23,7.20
2014,02,20,09,24,7.20
2014,02,20,09,25,7.30
2014,02,20,09,26,7.30
2014,02,20,09,27,7.30
2014,02,20,09,28,7.30
2014,02,20,09,29,7.30
2014,02,20,09,30,7.30
2014,02,20,09,31,7.40
2014,02,20,09,32,7.40
2014,02,20,09,33,7.40
2014,02,20,09,34,7.50
2014,02,20,09,35,7.50
2014,02,20,09,36,7.50
2014,02,20,09,37,7.50
2014,02,20,09,38,7.40
2014,02,20,09,39,7.40
2014,02,20,09,40,7.40
2014,02,20,09,41,7.40
2014,02,20,09,42,7.40
2014,02,20,09,43,7.40
2014,02,20,09,44,7.40
2014,02,20,09,45,7.40
2014,02,20,09,46,7.40
2014,02,20,09,47,7.40
2014,02,20,09,48,7.40
2014,02,20,09,49,7.40
2014,02,20,09,50,7.40
2014,02,20,09,51,7.50
2014,02,20,09,52,7.50
2014,02,20,09,53,7.50
2014,02,20,09,54,7.60
2014,02,20,09,55,7.60
2014,02,20,09,56,7.60
2014,02,20,09,57,7.60
2014,02,20,09,58,7.60
2014,02,20,09,59,7.60
2014,02,20,10,00,7.60
2014,02,20,10,01,7.60
2014,02,20,10,02,7.70
2014,02,20,10,03,7.70
2014,02,20,10,04,7.70
2014,02,20,10,05,7.80
2014,02,20,10,06,7.80
2014,02,20,10,07,7.80
2014,02,20,10,08,7.80
2014,02,20,10,09,7.80
2014,02,20,10,10,7.80
2014,02,20,10,11,7.90
2014,02,20,10,12,7.90
2014,02,20,10,13,7.90
2014,02,20,10,14,7.90
2014,02,20,10,15,7.90
2014,02,20,10,16,7.90
2014,02,20,10,17,7.90
2014,02,20,10,18,7.90
2014,02,20,10,19,7.80
2014,02,20,10,20,7.80
2014,02,20,10,21,7.80
2014,02,20,10,22,7.80
2014,02,20,10,23,7.80
2014,02,20,10,24,7.80
2014,02,20,10,25,7.80
2014,02,20,10,26,7.80
2014,02,20,10,27,7.80
2014,02,20,10,28,7.90
2014,02,20,10,29,7.90
2014,02,20,10,30,7.90
2014,02,20,10,31,7.90
2014,02,20,10,32,7.90
2014,02,20,10,33,7.90
2014,02,20,10,34,7.90
2014,02,20,10,35,7.90
2014,02,20,10,36,7.80
2014,02,20,10,37,7.80
2014,02,20,10,38,7.70
2014,02,20,10,39,7.70
2014,02,20,10,40,7.70
2014,02,20,10,41,7.60
2014,02,20,10,42,7.70
2014,02,20,10,43,7.70
2014,02,20,10,44,7.60
2014,02,20,10,45,7.60
2014,02,20,10,46,7.60
2014,02,20,10,47,7.60
2014,02,20,10,48,7.60
2014,02,20,10,49,7.60
2014,02,20,10,50,7.70
2014,02,20,10,51,7.70
2014,02,20,10,52,7.80
2014,02,20,10,53,7.80
2014,02,20,10,54,7.90
2014,02,20,10,55,7.90
2014,02,20,10,56,8.00
2014,02,20,10,57,8.00
2014,02,20,10,58,8.00
2014,02,20,10,59,8.10
2014,02,20,11,00,8.10
2014,02,20,11,01,8.10
2014,02,20,11,02,8.20
2014,02,20,11,03,8.30
2014,02,20,11,04,8.30
2014,02,20,11,05,8.40
2014,02,20,11,06,8.50
2014,02,20,11,07,8.60
2014,02,20,11,08,8.60
2014,02,20,11,09,8.70
2014,02,20,11,10,8.70
2014,02,20,11,11,8.80
2014,02,20,11,12,8.70
2014,02,20,11,13,8.70
2014,02,20,11,14,8.70
2014,02,20,11,15,8.60
2014,02,20,11,16,8.60
2014,02,20,11,17,8.70
2014,02,20,11,18,8.70
2014,02,20,11,19,8.70
2014,02,20,11,20,8.70
2014,02,20,11,21,8.70
2014,02,20,11,22,8.80
2014,02,20,11,23,8.80
2014,02,20,11,24,8.70
2014,02,20,11,25,8.70
2014,02,20,11,26,8.60
2014,02,20,11,27,8.60
2014,02,20,11,28,8.60
2014,02,20,11,29,8.60
2014,02,20,11,30,8.50
2014,02,20,11,31,8.40
2014,02,20,11,32,8.40
2014,02,20,11,33,8.40
2014,02,20,11,34,8.50
2014,02,20,11,35,8.50
2014,02,20,11,36,8.60
2014,02,20,11,37,8.60
2014,02,20,11,38,8.60
2014,02,20,11,39,8.60
2014,02,20,11,40,8.70
2014,02,20,11,41,8.70
2014,02,20,11,42,8.70
2014,02,20,11,43,8.80
2014,02,20,11,44,8.80
2014,02,20,11,45,8.80
2014,02,20,11,46,8.80
2014,02,20,11,47,8.80
2014,02,20,11,48,8.70
2014,02,20,11,49,8.70
2014,02,20,11,50,8.70
2014,02,20,11,51,8.70
2014,02,20,11,52,8.60
2014,02,20,11,53,8.50
2014,02,20,11,54,8.50
2014,02,20,11,55,8.50
2014,02,20,11,56,8.50
2014,02,20,11,57,8.60
2014,02,20,11,58,8.60
2014,02,20,11,59,8.70
2014,02,20,12,00,8.70
2014,02,20,12,01,8.70
2014,02,20,12,02,8.60
2014,02,20,12,03,8.60
2014,02,20,12,04,8.60
2014,02,20,12,05,8.60
2014,02,20,12,06,8.50
2014,02,20,12,07,8.50
2014,02,20,12,08,8.40
2014,02,20,12,09,8.40
2014,02,20,12,10,8.30
2014,02,20,12,11,8.30
2014,02,20,12,12,8.20
2014,02,20,12,13,8.20
2014,02,20,12,14,8.10
2014,02,20,12,15,8.10
2014,02,20,12,16,8.10
2014,02,20,12,17,8.10
2014,02,20,12,18,8.10
2014,02,20,12,19,8.10
2014,02,20,12,20,8.10
2014,02,20,12,21,8.10
2014,02,20,12,22,8.20
2014,02,20,12,23,8.20
2014,02,20,12,24,8.30
2014,02,20,12,25,8.30
2014,02,20,12,26,8.40
2014,02,20,12,27,8.40
2014,02,20,12,28,8.40
2014,02,20,12,29,8.40
2014,02,20,12,30,8.40
2014,02,20,12,31,8.50
2014,02,20,12,32,8.50
2014,02,20,12,33,8.60
2014,02,20,12,34,8.60
2014,02,20,12,35,8.70
2014,02,20,12,36,8.80
2014,02,20,12,37,8.80
2014,02,20,12,38,8.80
2014,02,20,12,39,8.80
2014,02,20,12,40,8.90
2014,02,20,12,41,8.90
2014,02,20,12,42,8.90
2014,02,20,12,43,8.80
2014,02,20,12,44,8.80
2014,02,20,12,45,8.80
2014,02,20,12,46,8.90
2014,02,20,12,47,8.90
2014,02,20,12,48,8.90
2014,02,20,12,49,8.90
2014,02,20,12,50,8.90
2014,02,20,12,51,8.90
2014,02,20,12,52,8.80
2014,02,20,12,53,8.80
2014,02,20,12,54,8.70
2014,02,20,12,55,8.70
2014,02,20,12,56,8.60
2014,02,20,12,57,8.50
2014,02,20,12,58,8.30
2014,02,20,12,59,8.30
2014,02,20,13,00,8.20
2014,02,20,13,01,8.20
2014,02,20,13,02,8.20
2014,02,20,13,03,8.10
2014,02,20,13,04,8.10
2014,02,20,13,05,8.10
2014,02,20,13,06,8.20
2014,02,20,13,07,8.20
2014,02,20,13,08,8.30
2014,02,20,13,09,8.40
2014,02,20,13,10,8.40
2014,02,20,13,11,8.30
2014,02,20,13,12,8.30
2014,02,20,13,13,8.30
2014,02,20,13,14,8.30
2014,02,20,13,15,8.30
2014,02,20,13,16,8.20
2014,02,20,13,17,8.20
2014,02,20,13,18,8.20
2014,02,20,13,19,8.20
2014,02,20,13,20,8.30
2014,02,20,13,21,8.30
2014,02,20,13,22,8.30
2014,02,20,13,23,8.40
2014,02,20,13,24,8.30
2014,02,20,13,25,8.30
2014,02,20,13,26,8.30
2014,02,20,13,27,8.30
2014,02,20,13,28,8.30
2014,02,20,13,29,8.40
2014,02,20,13,30,8.50
2014,02,20,13,31,8.60
2014,02,20,13,32,8.60
2014,02,20,13,33,8.60
2014,02,20,13,34,8.70
2014,02,20,13,35,8.70
2014,02,20,13,36,8.70
2014,02,20,13,37,8.60
2014,02,20,13,38,8.70
2014,02,20,13,39,8.70
2014,02,20,13,40,8.70
2014,02,20,13,41,8.80
2014,02,20,13,42,8.80
2014,02,20,13,43,8.80
2014,02,20,13,44,8.70
2014,02,20,13,45,8.60
2014,02,20,13,46,8.50
2014,02,20,13,47,8.50
2014,02,20,13,48,8.50
2014,02,20,13,49,8.60
2014,02,20,13,50,8.60
2014,02,20,13,51,8.60
2014,02,20,13,52,8.60
2014,02,20,13,53,8.60
2014,02,20,13,54,8.50
2014,02,20,13,55,8.50
2014,02,20,13,56,8.50
2014,02,20,13,57,8.60
2014,02,20,13,58,8.60
2014,02,20,13,59,8.60
2014,02,20,14,00,8.50
2014,02,20,14,01,8.50
2014,02,20,14,02,8.40
2014,02,20,14,03,8.40
2014,02,20,14,04,8.40
2014,02,20,14,05,8.40
2014,02,20,14,06,8.40
2014,02,20,14,07,8.40
2014,02,20,14,08,8.50
2014,02,20,14,09,8.60
2014,02,20,14,10,8.60
2014,02,20,14,11,8.60
2014,02,20,14,12,8.50
2014,02,20,14,13,8.40
2014,02,20,14,14,8.30
2014,02,20,14,15,8.30
2014,02,20,14,16,8.30
2014,02,20,14,17,8.30
2014,02,20,14,18,8.30
2014,02,20,14,19,8.40
2014,02,20,14,20,8.40
2014,02,20,14,21,8.40
2014,02,20,14,22,8.50
2014,02,20,14,23,8.50
2014,02,20,14,24,8.50
2014,02,20,14,25,8.50
2014,02,20,14,26,8.40
2014,02,20,14,27,8.40
2014,02,20,14,28,8.40
2014,02,20,14,29,8.40
2014,02,20,14,30,8.40
2014,02,20,14,31,8.40
2014,02,20,14,32,8.40
2014,02,20,14,33,8.50
2014,02,20,14,34,8.50
2014,02,20,14,35,8.60
2014,02,20,14,36,8.70
2014,02,20,14,37,8.70
2014,02,20,14,38,8.80
2014,02,20,14,39,8.80
2014,02,20,14,40,8.80
2014,02,20,14,41,8.80
2014,02,20,14,42,8.80
2014,02,20,14,43,8.80
2014,02,20,14,44,8.70
2014,02,20,14,45,8.70
2014,02,20,14,46,8.60
2014,02,20,14,47,8.60
2014,02,20,14,48,8.50
2014,02,20,14,49,8.40
2014,02,20,14,50,8.40
2014,02,20,14,51,8.40
2014,02,20,14,52,8.40
2014,02,20,14,53,8.50
2014,02,20,14,54,8.60
2014,02,20,14,55,8.70
2014,02,20,14,56,8.80
2014,02,20,14,57,8.80
2014,02,20,14,58,8.80
2014,02,20,14,59,8.80
2014,02,20,15,00,8.80
2014,02,20,15,01,8.80
2014,02,20,15,02,8.80
2014,02,20,15,03,8.70
2014,02,20,15,04,8.60
2014,02,20,15,05,8.60
2014,02,20,15,06,8.50
2014,02,20,15,07,8.50
2014,02,20,15,08,8.50
2014,02,20,15,09,8.50
2014,02,20,15,10,8.40
2014,02,20,15,11,8.40
2014,02,20,15,12,8.30
2014,02,20,15,13,8.30
2014,02,20,15,14,8.30
2014,02,20,15,15,8.30
2014,02,20,15,16,8.30
2014,02,20,15,17,8.30
2014,02,20,15,18,8.30
2014,02,20,15,19,8.30
2014,02,20,15,20,8.30
2014,02,20,15,21,8.30
2014,02,20,15,22,8.20
2014,02,20,15,23,8.20
2014,02,20,15,24,8.20
2014,02,20,15,25,8.10
2014,02,20,15,26,8.10
2014,02,20,15,27,8.10
2014,02,20,15,28,8.10
2014,02,20,15,29,8.10
2014,02,20,15,30,8.10
2014,02,20,15,31,8.10
2014,02,20,15,32,8.10
2014,02,20,15,33,8.10
2014,02,20,15,34,8.10
2014,02,20,15,35,8.10
2014,02,20,15,36,8.00
2014,02,20,15,37,8.00
2014,02,20,15,38,8.00
2014,02,20,15,39,8.00
2014,02,20,15,40,8.10
2014,02,20,15,41,8.10
2014,02,20,15,42,8.10
2014,02,20,15,43,8.10
2014,02,20,15,44,8.10
2014,02,20,15,45,8.00
2014,02,20,15,46,8.00
2014,02,20,15,47,8.00
2014,02,20,15,48,7.90
2014,02,20,15,49,7.90
2014,02,20,15,50,7.90
2014,02,20,15,51,7.90
2014,02,20,15,52,7.80
2014,02,20,15,53,7.80
2014,02,20,15,54,7.70
2014,02,20,15,55,7.60
2014,02,20,15,56,7.50
2014,02,20,15,57,7.50
2014,02,20,15,58,7.40
2014,02,20,15,59,7.30
2014,02,20,16,00,7.30
2014,02,20,16,01,7.20
2014,02,20,16,02,7.20
2014,02,20,16,03,7.20
2014,02,20,16,04,7.20
2014,02,20,16,05,7.20
2014,02,20,16,06,7.10
2014,02,20,16,07,7.10
2014,02,20,16,08,7.10
2014,02,20,16,09,7.00
2014,02,20,16,10,7.00
2014,02,20,16,11,7.00
2014,02,20,16,12,6.90
2014,02,20,16,13,6.90
2014,02,20,16,14,6.90
2014,02,20,16,15,6.90
2014,02,20,16,16,7.00
2014,02,20,16,17,7.00
2014,02,20,16,18,7.00
2014,02,20,16,19,7.10
2014,02,20,16,20,7.10
2014,02,20,16,21,7.10
2014,02,20,16,22,7.10
2014,02,20,16,23,7.10
2014,02,20,16,24,7.10
2014,02,20,16,25,7.10
2014,02,20,16,26,7.20
2014,02,20,16,27,7.20
2014,02,20,16,28,7.20
2014,02,20,16,29,7.20
2014,02,20,16,30,7.30
2014,02,20,16,31,7.30
2014,02,20,16,32,7.30
2014,02,20,16,33,7.30
2014,02,20,16,34,7.30
2014,02,20,16,35,7.30
2014,02,20,16,36,7.30
2014,02,20,16,37,7.30
2014,02,20,16,38,7.30
2014,02,20,16,39,7.20
2014,02,20,16,40,7.20
2014,02,20,16,41,7.20
2014,02,20,16,42,7.20
2014,02,20,16,43,7.20
2014,02,20,16,44,7.20
2014,02,20,16,45,7.20
2014,02,20,16,46,7.20
2014,02,20,16,47,7.20
2014,02,20,16,48,7.20
2014,02,20,16,49,7.20
2014,02,20,16,50,7.20
2014,02,20,16,51,7.10
2014,02,20,16,52,7.10
2014,02,20,16,53,7.10
2014,02,20,16,54,7.10
2014,02,20,16,55,7.10
2014,02,20,16,56,7.00
2014,02,20,16,57,7.00
2014,02,20,16,58,7.00
2014,02,20,16,59,6.90
2014,02,20,17,00,6.90
2014,02,20,17,01,6.90
2014,02,20,17,02,6.90
2014,02,20,17,03,6.90
2014,02,20,17,04,6.90
2014,02,20,17,05,6.80
2014,02,20,17,06,6.80
2014,02,20,17,07,6.80
2014,02,20,17,08,6.70
2014,02,20,17,09,6.70
2014,02,20,17,10,6.70
2014,02,20,17,11,6.70
2014,02,20,17,12,6.60
2014,02,20,17,13,6.60
2014,02,20,17,14,6.60
2014,02,20,17,15,6.60
2014,02,20,17,16,6.50
2014,02,20,17,17,6.50
2014,02,20,17,18,6.50
2014,02,20,17,19,6.50
2014,02,20,17,20,6.40
2014,02,20,17,21,6.40
2014,02,20,17,22,6.30
2014,02,20,17,23,6.40
2014,02,20,17,24,6.40
2014,02,20,17,25,6.50
2014,02,20,17,26,6.50
2014,02,20,17,27,6.60
2014,02,20,17,28,6.60
2014,02,20,17,29,6.60
2014,02,20,17,30,6.50
2014,02,20,17,31,6.50
2014,02,20,17,32,6.40
2014,02,20,17,33,6.40
2014,02,20,17,34,6.40
2014,02,20,17,35,6.40
2014,02,20,17,36,6.50
2014,02,20,17,37,6.50
2014,02,20,17,38,6.60
2014,02,20,17,39,6.60
2014,02,20,17,40,6.50
2014,02,20,17,41,6.50
2014,02,20,17,42,6.50
2014,02,20,17,43,6.50
2014,02,20,17,44,6.60
2014,02,20,17,45,6.60
2014,02,20,17,46,6.60
2014,02,20,17,47,6.60
2014,02,20,17,48,6.60
2014,02,20,17,49,6.60
2014,02,20,17,50,6.60
2014,02,20,17,51,6.60
2014,02,20,17,52,6.60
2014,02,20,17,53,6.60
2014,02,20,17,54,6.70
2014,02,20,17,55,6.60
2014,02,20,17,56,6.60
2014,02,20,17,57,6.60
2014,02,20,17,58,6.60
2014,02,20,17,59,6.60
2014,02,20,18,00,6.60
2014,02,20,18,01,6.60
2014,02,20,18,02,6.60
2014,02,20,18,03,6.50
2014,02,20,18,04,6.50
2014,02,20,18,05,6.50
2014,02,20,18,06,6.50